Flag for Germany Weather past 2 weeks in Esslingen, Baden-Württemberg, Germany

Now
57 °F

Partly sunny.


Feels Like: 57 °F
Forecast: 44 / 68 °F
Wind: 5 mph from North

Location: Stuttgart-Echterdingen

Current Time: Sep 1, 2014 at 1:41:42 PM

Latest Report: Sep 1, 2014 at 1:20 PM


Visibility: N/A

Pressure: 30.15 "Hg

Humidity: 77%

Dew point: 50 °F

Location of EsslingenLocation

Historic Weather in Esslingen — Graph

°F

Esslingen temperature yesterday

Maximum temperature yesterday: 61 °F (at 12:20 AM)
Minimum temperature yesterday: 54 °F (at 8:50 PM)
Average temperature yesterday: 58 °F

Past Weeks' High & Low Weather Summary

 TemperatureHumidityPressure
High73 °F (Aug 28, 3:20 PM)100% (Aug 25, 6:20 AM)30.15 "Hg (Aug 25, 6:20 AM)
Low45 °F (Aug 25, 5:20 AM)38% (Aug 22, 4:20 PM)29.68 "Hg (Aug 26, 5:50 AM)
Average59 °F76%30.00 "Hg
* Reported Aug 17 12:20 PM — Sep 1 12:20 PM, Esslingen, Weather by CustomWeather, © 2014

Note: Actual official high and low records may vary slightly from our data, if they occured in-between our weather recording intervals... More about our weather records

Advertising

Esslingen weather history for previous 24 hours

 ConditionsComfort  
Time TempWeatherWind HumidityBarometerVisibility
12:20 PM
Sep 1
55 °FSprinkles. Partly sunny.9 mph82%30.15 "HgN/A
11:50 AM55 °FBroken clouds.6 mph82%30.15 "HgN/A
11:20 AM55 °FBroken clouds.5 mph82%30.15 "HgN/A
10:50 AM55 °FPartly sunny.5 mph82%30.15 "HgN/A
10:20 AM55 °FPartly sunny.5 mph77%30.15 "HgN/A
9:50 AM54 °FPartly sunny.8 mph88%30.12 "HgN/A
9:20 AM54 °FPartly sunny.6 mph88%30.12 "HgN/A
8:50 AM54 °FPartly sunny.9 mph88%30.12 "HgN/A
8:20 AM54 °FScattered clouds.8 mph88%30.09 "HgN/A
7:50 AM54 °FPartly sunny.7 mph88%30.09 "HgN/A
7:20 AM54 °FPassing clouds.6 mph88%30.09 "HgN/A
6:50 AM54 °FPassing clouds.6 mph88%30.09 "HgN/A
6:20 AM54 °FPassing clouds.8 mph88%30.07 "HgN/A
5:50 AM54 °FPassing clouds.8 mph88%30.07 "HgN/A
5:20 AM52 °FPassing clouds.8 mph94%30.07 "HgN/A
4:50 AM52 °FPartly cloudy.8 mph94%30.07 "HgN/A
4:20 AM52 °FPassing clouds.7 mph94%30.07 "HgN/A
3:50 AM54 °FPassing clouds.7 mph94%30.07 "HgN/A
3:20 AM54 °FPassing clouds.7 mph94%30.07 "HgN/A
2:50 AM54 °FPassing clouds.6 mph94%30.04 "HgN/A
2:20 AM54 °FPassing clouds.3 mph94%30.04 "HgN/A
1:50 AM55 °FPassing clouds.6 mph88%30.04 "HgN/A
1:20 AM55 °FPassing clouds.5 mph88%30.04 "HgN/A
12:50 AM55 °FPassing clouds.7 mph88%30.04 "HgN/A
12:20 AM55 °FPassing clouds.6 mph88%30.04 "HgN/A
11:50 PM
Aug 31
55 °FPartly cloudy.5 mph88%30.04 "HgN/A
11:20 PM55 °FLight rain. Partly cloudy.7 mph94%30.04 "HgN/A
10:50 PM55 °FLight rain. Partly cloudy.3 mph94%30.04 "HgN/A
10:20 PM55 °FPassing clouds.3 mph94%30.04 "HgN/A
9:50 PM55 °FSprinkles. Passing clouds.3 mph94%30.04 "HgN/A
9:20 PM55 °FPartly cloudy.2 mph88%30.04 "HgN/A
8:50 PM54 °FBroken clouds.2 mph94%30.04 "HgN/A
8:20 PM55 °FSprinkles. Broken clouds.3 mph88%30.01 "HgN/A
7:20 PM57 °FPartly sunny.12 mph82%30.01 "HgN/A
6:50 PM59 °FPartly sunny.9 mph77%30.01 "HgN/A
6:20 PM59 °FBroken clouds.13 mph77%30.01 "HgN/A
5:50 PM59 °FScattered clouds.10 mph77%29.98 "HgN/A
5:20 PM59 °FScattered clouds.8 mph82%29.98 "HgN/A
4:50 PM57 °FScattered clouds.6 mph88%29.98 "HgN/A
4:20 PM55 °FPartly sunny.6 mph88%29.98 "HgN/A
3:50 PM55 °FBroken clouds.6 mph88%29.98 "HgN/A
3:20 PM55 °FLight rain. Partly sunny.5 mph88%30.01 "HgN/A
2:50 PM55 °FRain. Partly sunny.5 mph94%30.01 "HgN/A
2:20 PM57 °FLight rain. Partly sunny.9 mph88%30.01 "HgN/A
1:50 PM57 °FRain. Partly sunny.12 mph88%30.01 "HgN/A
1:20 PM57 °FRain. Partly sunny.8 mph94%29.98 "HgN/A
Weather by CustomWeather, © 2014

See weather overviewHow to use our weather pages